Year,Month,Day,Hour,Minute,Value (Times are PST for windgust in km/hr)
2015,10,09,00,00,3.20
2015,10,09,00,01,1.60
2015,10,09,00,02,3.20
2015,10,09,00,03,3.20
2015,10,09,00,04,1.60
2015,10,09,00,05,1.60
2015,10,09,00,06,3.20
2015,10,09,00,07,1.60
2015,10,09,00,08,1.60
2015,10,09,00,09,4.80
2015,10,09,00,10,3.20
2015,10,09,00,12,1.60
2015,10,09,00,13,3.20
2015,10,09,00,14,3.20
2015,10,09,00,15,3.20
2015,10,09,00,16,3.20
2015,10,09,00,17,4.80
2015,10,09,00,18,3.20
2015,10,09,00,19,3.20
2015,10,09,00,20,1.60
2015,10,09,00,22,1.60
2015,10,09,00,26,1.60
2015,10,09,00,27,1.60
2015,10,09,00,28,1.60
2015,10,09,00,29,1.60
2015,10,09,00,30,1.60
2015,10,09,00,31,1.60
2015,10,09,00,32,1.60
2015,10,09,00,33,1.60
2015,10,09,00,34,1.60
2015,10,09,00,35,1.60
2015,10,09,00,36,1.60
2015,10,09,00,37,1.60
2015,10,09,00,38,1.60
2015,10,09,00,39,1.60
2015,10,09,00,40,1.60
2015,10,09,00,41,3.20
2015,10,09,00,42,1.60
2015,10,09,00,43,1.60
2015,10,09,00,44,1.60
2015,10,09,00,45,1.60
2015,10,09,00,46,3.20
2015,10,09,00,47,1.60
2015,10,09,00,48,1.60
2015,10,09,00,49,1.60
2015,10,09,00,50,1.60
2015,10,09,00,51,3.20
2015,10,09,00,52,4.80
2015,10,09,00,53,3.20
2015,10,09,00,54,3.20
2015,10,09,00,55,6.40
2015,10,09,00,56,6.40
2015,10,09,00,57,6.40
2015,10,09,00,58,4.80
2015,10,09,00,59,6.40
2015,10,09,01,00,4.80
2015,10,09,01,01,6.40
2015,10,09,01,02,6.40
2015,10,09,01,03,3.20
2015,10,09,01,04,3.20
2015,10,09,01,05,3.20
2015,10,09,01,06,3.20
2015,10,09,01,07,3.20
2015,10,09,01,08,4.80
2015,10,09,01,09,8.10
2015,10,09,01,10,9.60
2015,10,09,01,11,6.40
2015,10,09,01,12,4.80
2015,10,09,01,13,6.40
2015,10,09,01,14,3.20
2015,10,09,01,15,3.20
2015,10,09,01,16,3.20
2015,10,09,01,17,4.80
2015,10,09,01,18,8.10
2015,10,09,01,19,4.80
2015,10,09,01,20,9.60
2015,10,09,01,21,9.60
2015,10,09,01,22,9.60
2015,10,09,01,23,4.80
2015,10,09,01,24,3.20
2015,10,09,01,25,12.90
2015,10,09,01,26,16.10
2015,10,09,01,27,19.30
2015,10,09,01,28,11.30
2015,10,09,01,29,14.50
2015,10,09,01,30,16.10
2015,10,09,01,31,3.20
2015,10,09,01,32,8.10
2015,10,09,01,33,11.30
2015,10,09,01,34,12.90
2015,10,09,01,35,8.10
2015,10,09,01,36,8.10
2015,10,09,01,37,16.10
2015,10,09,01,38,16.10
2015,10,09,01,39,6.40
2015,10,09,01,40,9.60
2015,10,09,01,41,11.30
2015,10,09,01,42,8.10
2015,10,09,01,43,11.30
2015,10,09,01,44,11.30
2015,10,09,01,45,8.10
2015,10,09,01,46,6.40
2015,10,09,01,47,6.40
2015,10,09,01,48,3.20
2015,10,09,01,49,6.40
2015,10,09,01,50,6.40
2015,10,09,01,51,8.10
2015,10,09,01,52,8.10
2015,10,09,01,53,4.80
2015,10,09,01,54,6.40
2015,10,09,01,55,3.20
2015,10,09,01,56,3.20
2015,10,09,01,57,4.80
2015,10,09,01,58,3.20
2015,10,09,01,59,6.40
2015,10,09,02,00,6.40
2015,10,09,02,01,6.40
2015,10,09,02,02,4.80
2015,10,09,02,03,11.30
2015,10,09,02,04,6.40
2015,10,09,02,05,3.20
2015,10,09,02,06,6.40
2015,10,09,02,07,3.20
2015,10,09,02,08,3.20
2015,10,09,02,09,8.10
2015,10,09,02,10,8.10
2015,10,09,02,11,8.10
2015,10,09,02,12,8.10
2015,10,09,02,13,6.40
2015,10,09,02,14,6.40
2015,10,09,02,15,12.90
2015,10,09,02,16,6.40
2015,10,09,02,17,8.10
2015,10,09,02,18,16.10
2015,10,09,02,19,6.40
2015,10,09,02,20,11.30
2015,10,09,02,21,8.10
2015,10,09,02,22,11.30
2015,10,09,02,23,8.10
2015,10,09,02,24,8.10
2015,10,09,02,25,8.10
2015,10,09,02,26,6.40
2015,10,09,02,27,6.40
2015,10,09,02,28,14.50
2015,10,09,02,29,16.10
2015,10,09,02,30,9.60
2015,10,09,02,31,12.90
2015,10,09,02,32,12.90
2015,10,09,02,33,9.60
2015,10,09,02,34,9.60
2015,10,09,02,35,11.30
2015,10,09,02,36,14.50
2015,10,09,02,37,4.80
2015,10,09,02,38,6.40
2015,10,09,02,39,11.30
2015,10,09,02,40,12.90
2015,10,09,02,41,14.50
2015,10,09,02,42,11.30
2015,10,09,02,43,8.10
2015,10,09,02,44,4.80
2015,10,09,02,45,8.10
2015,10,09,02,46,6.40
2015,10,09,02,47,11.30
2015,10,09,02,48,9.60
2015,10,09,02,49,8.10
2015,10,09,02,50,4.80
2015,10,09,02,51,3.20
2015,10,09,02,52,4.80
2015,10,09,02,53,6.40
2015,10,09,02,54,8.10
2015,10,09,02,55,17.70
2015,10,09,02,56,9.60
2015,10,09,02,57,9.60
2015,10,09,02,58,11.30
2015,10,09,02,59,11.30
2015,10,09,03,00,16.10
2015,10,09,03,01,16.10
2015,10,09,03,02,17.70
2015,10,09,03,03,12.90
2015,10,09,03,04,6.40
2015,10,09,03,05,14.50
2015,10,09,03,06,6.40
2015,10,09,03,07,8.10
2015,10,09,03,08,17.70
2015,10,09,03,09,16.10
2015,10,09,03,10,14.50
2015,10,09,03,11,14.50
2015,10,09,03,12,14.50
2015,10,09,03,13,12.90
2015,10,09,03,14,11.30
2015,10,09,03,15,9.60
2015,10,09,03,16,14.50
2015,10,09,03,17,6.40
2015,10,09,03,18,4.80
2015,10,09,03,19,8.10
2015,10,09,03,20,8.10
2015,10,09,03,21,12.90
2015,10,09,03,22,8.10
2015,10,09,03,23,9.60
2015,10,09,03,24,6.40
2015,10,09,03,25,4.80
2015,10,09,03,26,4.80
2015,10,09,03,27,6.40
2015,10,09,03,28,4.80
2015,10,09,03,29,9.60
2015,10,09,03,30,12.90
2015,10,09,03,31,16.10
2015,10,09,03,32,9.60
2015,10,09,03,33,14.50
2015,10,09,03,34,9.60
2015,10,09,03,35,9.60
2015,10,09,03,36,8.10
2015,10,09,03,37,9.60
2015,10,09,03,38,16.10
2015,10,09,03,39,12.90
2015,10,09,03,40,16.10
2015,10,09,03,41,6.40
2015,10,09,03,42,16.10
2015,10,09,03,43,14.50
2015,10,09,03,44,16.10
2015,10,09,03,45,22.50
2015,10,09,03,46,17.70
2015,10,09,03,47,20.90
2015,10,09,03,48,17.70
2015,10,09,03,49,19.30
2015,10,09,03,50,19.30
2015,10,09,03,51,20.90
2015,10,09,03,52,12.90
2015,10,09,03,53,19.30
2015,10,09,03,54,16.10
2015,10,09,03,55,16.10
2015,10,09,03,56,22.50
2015,10,09,03,57,9.60
2015,10,09,03,58,14.50
2015,10,09,03,59,22.50
2015,10,09,04,00,20.90
2015,10,09,04,01,19.30
2015,10,09,04,02,14.50
2015,10,09,04,03,24.20
2015,10,09,04,04,14.50
2015,10,09,04,05,11.30
2015,10,09,04,06,12.90
2015,10,09,04,07,19.30
2015,10,09,04,08,11.30
2015,10,09,04,09,14.50
2015,10,09,04,10,17.70
2015,10,09,04,11,24.20
2015,10,09,04,12,27.40
2015,10,09,04,13,22.50
2015,10,09,04,14,20.90
2015,10,09,04,15,22.50
2015,10,09,04,16,30.60
2015,10,09,04,17,17.70
2015,10,09,04,18,14.50
2015,10,09,04,19,17.70
2015,10,09,04,20,19.30
2015,10,09,04,21,17.70
2015,10,09,04,22,16.10
2015,10,09,04,23,8.10
2015,10,09,04,24,16.10
2015,10,09,04,25,16.10
2015,10,09,04,26,16.10
2015,10,09,04,27,12.90
2015,10,09,04,28,14.50
2015,10,09,04,29,11.30
2015,10,09,04,30,11.30
2015,10,09,04,31,14.50
2015,10,09,04,32,19.30
2015,10,09,04,33,11.30
2015,10,09,04,34,6.40
2015,10,09,04,35,3.20
2015,10,09,04,36,6.40
2015,10,09,04,37,6.40
2015,10,09,04,38,6.40
2015,10,09,04,39,11.30
2015,10,09,04,40,11.30
2015,10,09,04,41,3.20
2015,10,09,04,42,9.60
2015,10,09,04,43,4.80
2015,10,09,04,44,4.80
2015,10,09,04,45,6.40
2015,10,09,04,46,6.40
2015,10,09,04,47,12.90
2015,10,09,04,48,12.90
2015,10,09,04,49,3.20
2015,10,09,04,50,6.40
2015,10,09,04,51,9.60
2015,10,09,04,52,3.20
2015,10,09,04,53,6.40
2015,10,09,04,54,6.40
2015,10,09,04,55,9.60
2015,10,09,04,56,14.50
2015,10,09,04,57,6.40
2015,10,09,04,58,4.80
2015,10,09,04,59,9.60
2015,10,09,05,00,12.90
2015,10,09,05,01,12.90
2015,10,09,05,02,11.30
2015,10,09,05,03,9.60
2015,10,09,05,04,11.30
2015,10,09,05,05,11.30
2015,10,09,05,06,11.30
2015,10,09,05,07,8.10
2015,10,09,05,08,8.10
2015,10,09,05,09,6.40
2015,10,09,05,10,11.30
2015,10,09,05,11,4.80
2015,10,09,05,12,4.80
2015,10,09,05,13,8.10
2015,10,09,05,14,3.20
2015,10,09,05,15,6.40
2015,10,09,05,16,6.40
2015,10,09,05,17,3.20
2015,10,09,05,18,11.30
2015,10,09,05,19,4.80
2015,10,09,05,20,6.40
2015,10,09,05,21,4.80
2015,10,09,05,22,8.10
2015,10,09,05,23,12.90
2015,10,09,05,24,8.10
2015,10,09,05,25,9.60
2015,10,09,05,26,6.40
2015,10,09,05,27,11.30
2015,10,09,05,28,9.60
2015,10,09,05,29,8.10
2015,10,09,05,30,4.80
2015,10,09,05,31,11.30
2015,10,09,05,32,8.10
2015,10,09,05,33,6.40
2015,10,09,05,34,6.40
2015,10,09,05,35,6.40
2015,10,09,05,36,6.40
2015,10,09,05,37,12.90
2015,10,09,05,38,8.10
2015,10,09,05,39,8.10
2015,10,09,05,40,3.20
2015,10,09,05,41,6.40
2015,10,09,05,42,6.40
2015,10,09,05,43,8.10
2015,10,09,05,44,8.10
2015,10,09,05,45,3.20
2015,10,09,05,47,3.20
2015,10,09,05,48,1.60
2015,10,09,05,49,8.10
2015,10,09,05,50,4.80
2015,10,09,05,51,4.80
2015,10,09,05,52,1.60
2015,10,09,05,53,4.80
2015,10,09,05,54,4.80
2015,10,09,05,55,4.80
2015,10,09,05,56,6.40
2015,10,09,05,57,9.60
2015,10,09,05,58,9.60
2015,10,09,05,59,4.80
2015,10,09,06,00,8.10
2015,10,09,06,01,8.10
2015,10,09,06,02,6.40
2015,10,09,06,03,6.40
2015,10,09,06,04,6.40
2015,10,09,06,05,8.10
2015,10,09,06,06,9.60
2015,10,09,06,07,8.10
2015,10,09,06,08,4.80
2015,10,09,06,09,6.40
2015,10,09,06,10,4.80
2015,10,09,06,11,3.20
2015,10,09,06,12,4.80
2015,10,09,06,13,6.40
2015,10,09,06,14,6.40
2015,10,09,06,15,8.10
2015,10,09,06,16,3.20
2015,10,09,06,17,3.20
2015,10,09,06,18,4.80
2015,10,09,06,19,4.80
2015,10,09,06,20,11.30
2015,10,09,06,21,6.40
2015,10,09,06,22,6.40
2015,10,09,06,23,6.40
2015,10,09,06,24,4.80
2015,10,09,06,25,9.60
2015,10,09,06,26,3.20
2015,10,09,06,27,6.40
2015,10,09,06,28,3.20
2015,10,09,06,29,1.60
2015,10,09,06,30,9.60
2015,10,09,06,31,11.30
2015,10,09,06,32,14.50
2015,10,09,06,33,4.80
2015,10,09,06,34,4.80
2015,10,09,06,35,1.60
2015,10,09,06,36,8.10
2015,10,09,06,37,8.10
2015,10,09,06,38,9.60
2015,10,09,06,39,8.10
2015,10,09,06,40,9.60
2015,10,09,06,41,14.50
2015,10,09,06,42,4.80
2015,10,09,06,43,8.10
2015,10,09,06,44,6.40
2015,10,09,06,45,14.50
2015,10,09,06,46,9.60
2015,10,09,06,47,6.40
2015,10,09,06,48,11.30
2015,10,09,06,49,11.30
2015,10,09,06,50,16.10
2015,10,09,06,51,11.30
2015,10,09,06,52,8.10
2015,10,09,06,53,11.30
2015,10,09,06,54,6.40
2015,10,09,06,55,6.40
2015,10,09,06,56,12.90
2015,10,09,06,57,14.50
2015,10,09,06,58,3.20
2015,10,09,06,59,8.10
2015,10,09,07,00,16.10
2015,10,09,07,01,16.10
2015,10,09,07,02,11.30
2015,10,09,07,03,11.30
2015,10,09,07,04,12.90
2015,10,09,07,05,9.60
2015,10,09,07,06,8.10
2015,10,09,07,07,14.50
2015,10,09,07,08,6.40
2015,10,09,07,09,11.30
2015,10,09,07,10,17.70
2015,10,09,07,11,16.10
2015,10,09,07,12,29.00
2015,10,09,07,13,16.10
2015,10,09,07,14,19.30
2015,10,09,07,15,16.10
2015,10,09,07,16,20.90
2015,10,09,07,17,14.50
2015,10,09,07,18,16.10
2015,10,09,07,19,16.10
2015,10,09,07,20,24.20
2015,10,09,07,21,29.00
2015,10,09,07,22,24.20
2015,10,09,07,23,17.70
2015,10,09,07,24,19.30
2015,10,09,07,25,22.50
2015,10,09,07,26,12.90
2015,10,09,07,27,19.30
2015,10,09,07,28,16.10
2015,10,09,07,29,14.50
2015,10,09,07,30,14.50
2015,10,09,07,31,22.50
2015,10,09,07,32,22.50
2015,10,09,07,33,22.50
2015,10,09,07,34,16.10
2015,10,09,07,35,19.30
2015,10,09,07,36,17.70
2015,10,09,07,37,14.50
2015,10,09,07,38,19.30
2015,10,09,07,39,29.00
2015,10,09,07,40,19.30
2015,10,09,07,41,27.40
2015,10,09,07,42,25.70
2015,10,09,07,43,24.20
2015,10,09,07,44,16.10
2015,10,09,07,45,12.90
2015,10,09,07,46,20.90
2015,10,09,07,47,11.30
2015,10,09,07,48,17.70
2015,10,09,07,49,16.10
2015,10,09,07,50,14.50
2015,10,09,07,51,8.10
2015,10,09,07,52,11.30
2015,10,09,07,53,11.30
2015,10,09,07,54,9.60
2015,10,09,07,55,8.10
2015,10,09,07,56,11.30
2015,10,09,07,57,12.90
2015,10,09,07,58,17.70
2015,10,09,07,59,14.50
2015,10,09,08,00,19.30
2015,10,09,08,01,16.10
2015,10,09,08,02,19.30
2015,10,09,08,03,16.10
2015,10,09,08,04,12.90
2015,10,09,08,05,8.10
2015,10,09,08,06,16.10
2015,10,09,08,07,14.50
2015,10,09,08,08,12.90
2015,10,09,08,09,14.50
2015,10,09,08,10,17.70
2015,10,09,08,11,16.10
2015,10,09,08,12,11.30
2015,10,09,08,13,14.50
2015,10,09,08,14,14.50
2015,10,09,08,15,12.90
2015,10,09,08,16,11.30
2015,10,09,08,17,24.20
2015,10,09,08,18,24.20
2015,10,09,08,19,19.30
2015,10,09,08,20,11.30
2015,10,09,08,21,29.00
2015,10,09,08,22,24.20
2015,10,09,08,23,27.40
2015,10,09,08,24,24.20
2015,10,09,08,25,24.20
2015,10,09,08,26,27.40
2015,10,09,08,27,17.70
2015,10,09,08,28,11.30
2015,10,09,08,29,12.90
2015,10,09,08,30,12.90
2015,10,09,08,31,30.60
2015,10,09,08,32,33.80
2015,10,09,08,33,24.20
2015,10,09,08,34,24.20
2015,10,09,08,35,29.00
2015,10,09,08,36,32.20
2015,10,09,08,37,24.20
2015,10,09,08,38,22.50
2015,10,09,08,39,14.50
2015,10,09,08,40,16.10
2015,10,09,08,41,24.20
2015,10,09,08,42,24.20
2015,10,09,08,43,27.40
2015,10,09,08,44,20.90
2015,10,09,08,45,29.00
2015,10,09,08,46,20.90
2015,10,09,08,47,29.00
2015,10,09,08,48,27.40
2015,10,09,08,49,17.70
2015,10,09,08,50,30.60
2015,10,09,08,51,25.70
2015,10,09,08,52,30.60
2015,10,09,08,53,20.90
2015,10,09,08,54,22.50
2015,10,09,08,55,25.70
2015,10,09,08,56,30.60
2015,10,09,08,57,24.20
2015,10,09,08,58,20.90
2015,10,09,08,59,32.20
2015,10,09,09,00,27.40
2015,10,09,09,01,29.00
2015,10,09,09,02,27.40
2015,10,09,09,03,25.70
2015,10,09,09,04,25.70
2015,10,09,09,05,27.40
2015,10,09,09,06,27.40
2015,10,09,09,07,14.50
2015,10,09,09,08,27.40
2015,10,09,09,09,22.50
2015,10,09,09,10,27.40
2015,10,09,09,11,17.70
2015,10,09,09,12,27.40
2015,10,09,09,13,11.30
2015,10,09,09,14,29.00
2015,10,09,09,15,17.70
2015,10,09,09,16,19.30
2015,10,09,09,17,19.30
2015,10,09,09,18,14.50
2015,10,09,09,19,19.30
2015,10,09,09,20,14.50
2015,10,09,09,21,14.50
2015,10,09,09,22,11.30
2015,10,09,09,23,12.90
2015,10,09,09,24,17.70
2015,10,09,09,25,20.90
2015,10,09,09,26,16.10
2015,10,09,09,27,17.70
2015,10,09,09,28,25.70
2015,10,09,09,29,25.70
2015,10,09,09,30,16.10
2015,10,09,09,31,6.40
2015,10,09,09,32,19.30
2015,10,09,09,33,14.50
2015,10,09,09,34,24.20
2015,10,09,09,35,22.50
2015,10,09,09,36,24.20
2015,10,09,09,37,16.10
2015,10,09,09,38,19.30
2015,10,09,09,39,16.10
2015,10,09,09,40,9.60
2015,10,09,09,41,16.10
2015,10,09,09,42,14.50
2015,10,09,09,43,16.10
2015,10,09,09,44,14.50
2015,10,09,09,45,17.70
2015,10,09,09,46,12.90
2015,10,09,09,47,22.50
2015,10,09,09,48,22.50
2015,10,09,09,49,17.70
2015,10,09,09,50,22.50
2015,10,09,09,51,14.50
2015,10,09,09,52,14.50
2015,10,09,09,53,11.30
2015,10,09,09,54,9.60
2015,10,09,09,55,9.60
2015,10,09,09,56,6.40
2015,10,09,09,57,11.30
2015,10,09,09,58,6.40
2015,10,09,09,59,11.30
2015,10,09,10,00,11.30
2015,10,09,10,01,6.40
2015,10,09,10,02,6.40
2015,10,09,10,03,6.40
2015,10,09,10,04,14.50
2015,10,09,10,05,12.90
2015,10,09,10,06,8.10
2015,10,09,10,07,11.30
2015,10,09,10,08,19.30
2015,10,09,10,09,19.30
2015,10,09,10,10,19.30
2015,10,09,10,11,17.70
2015,10,09,10,12,17.70
2015,10,09,10,13,19.30
2015,10,09,10,14,17.70
2015,10,09,10,15,22.50
2015,10,09,10,16,20.90
2015,10,09,10,17,9.60
2015,10,09,10,18,24.20
2015,10,09,10,19,20.90
2015,10,09,10,20,17.70
2015,10,09,10,21,12.90
2015,10,09,10,22,19.30
2015,10,09,10,23,17.70
2015,10,09,10,24,17.70
2015,10,09,10,25,19.30
2015,10,09,10,26,19.30
2015,10,09,10,27,19.30
2015,10,09,10,28,22.50
2015,10,09,10,29,22.50
2015,10,09,10,30,16.10
2015,10,09,10,31,19.30
2015,10,09,10,32,17.70
2015,10,09,10,33,20.90
2015,10,09,10,34,11.30
2015,10,09,10,35,8.10
2015,10,09,10,36,12.90
2015,10,09,10,37,17.70
2015,10,09,10,38,14.50
2015,10,09,10,39,16.10
2015,10,09,10,40,11.30
2015,10,09,10,41,16.10
2015,10,09,10,42,4.80
2015,10,09,10,43,6.40
2015,10,09,10,44,12.90
2015,10,09,10,45,11.30
2015,10,09,10,46,8.10
2015,10,09,10,47,16.10
2015,10,09,10,48,11.30
2015,10,09,10,49,22.50
2015,10,09,10,50,19.30
2015,10,09,10,51,19.30
2015,10,09,10,52,24.20
2015,10,09,10,53,22.50
2015,10,09,10,54,16.10
2015,10,09,10,55,17.70
2015,10,09,10,56,19.30
2015,10,09,10,57,22.50
2015,10,09,10,58,19.30
2015,10,09,10,59,14.50
2015,10,09,11,00,19.30
2015,10,09,11,01,20.90
2015,10,09,11,02,17.70
2015,10,09,11,03,24.20
2015,10,09,11,04,20.90
2015,10,09,11,05,25.70
2015,10,09,11,06,22.50
2015,10,09,11,07,17.70
2015,10,09,11,08,19.30
2015,10,09,11,09,22.50
2015,10,09,11,10,25.70
2015,10,09,11,11,12.90
2015,10,09,11,12,22.50
2015,10,09,11,13,12.90
2015,10,09,11,14,22.50
2015,10,09,11,15,24.20
2015,10,09,11,16,27.40
2015,10,09,11,17,25.70
2015,10,09,11,18,19.30
2015,10,09,11,19,24.20
2015,10,09,11,20,22.50
2015,10,09,11,21,33.80
2015,10,09,11,22,29.00
2015,10,09,11,23,29.00
2015,10,09,11,24,16.10
2015,10,09,11,25,20.90
2015,10,09,11,26,11.30
2015,10,09,11,27,29.00
2015,10,09,11,28,19.30
2015,10,09,11,29,20.90
2015,10,09,11,30,35.40
2015,10,09,11,31,25.70
2015,10,09,11,32,12.90
2015,10,09,11,33,24.20
2015,10,09,11,34,27.40
2015,10,09,11,35,27.40
2015,10,09,11,36,22.50
2015,10,09,11,37,24.20
2015,10,09,11,38,20.90
2015,10,09,11,39,17.70
2015,10,09,11,40,24.20
2015,10,09,11,41,30.60
2015,10,09,11,42,16.10
2015,10,09,11,43,20.90
2015,10,09,11,44,22.50
2015,10,09,11,45,11.30
2015,10,09,11,46,29.00
2015,10,09,11,47,25.70
2015,10,09,11,48,30.60
2015,10,09,11,49,25.70
2015,10,09,11,50,25.70
2015,10,09,11,51,19.30
2015,10,09,11,52,22.50
2015,10,09,11,53,25.70
2015,10,09,11,54,27.40
2015,10,09,11,55,17.70
2015,10,09,11,56,17.70
2015,10,09,11,57,22.50
2015,10,09,11,58,24.20
2015,10,09,11,59,32.20
2015,10,09,12,00,19.30
2015,10,09,12,01,20.90
2015,10,09,12,02,14.50
2015,10,09,12,03,12.90
2015,10,09,12,04,22.50
2015,10,09,12,05,19.30
2015,10,09,12,06,22.50
2015,10,09,12,07,12.90
2015,10,09,12,08,25.70
2015,10,09,12,09,25.70
2015,10,09,12,10,30.60
2015,10,09,12,11,20.90
2015,10,09,12,12,20.90
2015,10,09,12,13,25.70
2015,10,09,12,14,24.20
2015,10,09,12,15,17.70
2015,10,09,12,16,22.50
2015,10,09,12,17,32.20
2015,10,09,12,18,19.30
2015,10,09,12,19,12.90
2015,10,09,12,20,29.00
2015,10,09,12,21,20.90
2015,10,09,12,22,29.00
2015,10,09,12,23,24.20
2015,10,09,12,24,20.90
2015,10,09,12,25,20.90
2015,10,09,12,26,20.90
2015,10,09,12,27,22.50
2015,10,09,12,28,22.50
2015,10,09,12,29,22.50
2015,10,09,12,30,22.50
2015,10,09,12,31,20.90
2015,10,09,12,32,22.50
2015,10,09,12,33,29.00
2015,10,09,12,34,24.20
2015,10,09,12,35,30.60
2015,10,09,12,36,27.40
2015,10,09,12,37,24.20
2015,10,09,12,38,38.60
2015,10,09,12,39,30.60
2015,10,09,12,40,27.40
2015,10,09,12,41,33.80
2015,10,09,12,42,27.40
2015,10,09,12,43,22.50
2015,10,09,12,44,20.90
2015,10,09,12,45,22.50
2015,10,09,12,46,20.90
2015,10,09,12,47,17.70
2015,10,09,12,48,22.50
2015,10,09,12,49,22.50
2015,10,09,12,50,33.80
2015,10,09,12,51,25.70
2015,10,09,12,52,22.50
2015,10,09,12,53,20.90
2015,10,09,12,54,20.90
2015,10,09,12,55,12.90
2015,10,09,12,56,24.20
2015,10,09,12,57,25.70
2015,10,09,12,58,14.50
2015,10,09,12,59,20.90
2015,10,09,13,00,19.30
2015,10,09,13,56,32.20
2015,10,09,13,57,19.30
2015,10,09,13,58,24.20
2015,10,09,13,59,32.20
2015,10,09,14,00,24.20
2015,10,09,14,01,37.00
2015,10,09,14,02,27.40
2015,10,09,14,03,33.80
2015,10,09,14,04,43.50
2015,10,09,14,05,45.10
2015,10,09,14,06,33.80
2015,10,09,14,07,32.20
2015,10,09,14,08,32.20
2015,10,09,14,09,37.00
2015,10,09,14,10,25.70
2015,10,09,14,11,19.30
2015,10,09,14,12,27.40
2015,10,09,14,13,32.20
2015,10,09,14,14,27.40
2015,10,09,14,15,17.70
2015,10,09,14,16,29.00
2015,10,09,14,17,38.60
2015,10,09,14,18,32.20
2015,10,09,14,19,22.50
2015,10,09,14,20,22.50
2015,10,09,14,21,32.20
2015,10,09,14,22,37.00
2015,10,09,14,23,19.30
2015,10,09,14,24,29.00
2015,10,09,14,25,25.70
2015,10,09,14,26,20.90
2015,10,09,14,27,19.30
2015,10,09,14,28,17.70
2015,10,09,14,29,29.00
2015,10,09,14,30,24.20
2015,10,09,14,31,32.20
2015,10,09,14,32,30.60
2015,10,09,14,33,29.00
2015,10,09,14,34,17.70
2015,10,09,14,35,20.90
2015,10,09,14,36,16.10
2015,10,09,14,37,17.70
2015,10,09,14,38,19.30
2015,10,09,14,39,29.00
2015,10,09,14,40,29.00
2015,10,09,14,41,33.80
2015,10,09,14,42,20.90
2015,10,09,14,43,16.10
2015,10,09,14,44,24.20
2015,10,09,14,45,20.90
2015,10,09,14,46,17.70
2015,10,09,14,47,19.30
2015,10,09,14,48,29.00
2015,10,09,14,49,29.00
2015,10,09,14,50,29.00
2015,10,09,14,51,17.70
2015,10,09,14,52,14.50
2015,10,09,14,53,19.30
2015,10,09,14,54,29.00
2015,10,09,14,55,32.20
2015,10,09,14,56,29.00
2015,10,09,14,57,19.30
2015,10,09,14,58,22.50
2015,10,09,14,59,22.50
2015,10,09,15,00,25.70
2015,10,09,15,01,38.60
2015,10,09,15,02,25.70
2015,10,09,15,03,22.50
2015,10,09,15,04,20.90
2015,10,09,15,05,27.40
2015,10,09,15,06,22.50
2015,10,09,15,07,27.40
2015,10,09,15,08,29.00
2015,10,09,15,09,22.50
2015,10,09,15,10,20.90
2015,10,09,15,11,22.50
2015,10,09,15,12,27.40
2015,10,09,15,13,25.70
2015,10,09,15,14,25.70
2015,10,09,15,15,14.50
2015,10,09,15,16,19.30
2015,10,09,15,17,27.40
2015,10,09,15,18,17.70
2015,10,09,15,19,29.00
2015,10,09,15,20,22.50
2015,10,09,15,21,29.00
2015,10,09,15,22,25.70
2015,10,09,15,23,25.70
2015,10,09,15,24,22.50
2015,10,09,15,25,19.30
2015,10,09,15,26,17.70
2015,10,09,15,27,17.70
2015,10,09,15,28,16.10
2015,10,09,15,29,25.70
2015,10,09,15,30,24.20
2015,10,09,15,31,25.70
2015,10,09,15,32,22.50
2015,10,09,15,33,22.50
2015,10,09,15,34,24.20
2015,10,09,15,35,30.60
2015,10,09,15,36,22.50
2015,10,09,15,37,16.10
2015,10,09,15,38,25.70
2015,10,09,15,39,14.50
2015,10,09,15,40,22.50
2015,10,09,15,41,16.10
2015,10,09,15,42,19.30
2015,10,09,15,43,19.30
2015,10,09,15,44,20.90
2015,10,09,15,45,19.30
2015,10,09,15,46,27.40
2015,10,09,15,47,27.40
2015,10,09,15,48,17.70
2015,10,09,15,49,16.10
2015,10,09,15,50,27.40
2015,10,09,15,51,20.90
2015,10,09,15,52,20.90
2015,10,09,15,53,25.70
2015,10,09,15,54,22.50
2015,10,09,15,55,22.50
2015,10,09,15,56,19.30
2015,10,09,15,57,19.30
2015,10,09,15,58,24.20
2015,10,09,15,59,24.20
2015,10,09,16,00,16.10
2015,10,09,16,01,17.70
2015,10,09,16,02,16.10
2015,10,09,16,03,27.40
2015,10,09,16,04,20.90
2015,10,09,16,05,16.10
2015,10,09,16,06,22.50
2015,10,09,16,07,25.70
2015,10,09,16,08,25.70
2015,10,09,16,09,22.50
2015,10,09,16,10,22.50
2015,10,09,16,11,29.00
2015,10,09,16,12,22.50
2015,10,09,16,13,17.70
2015,10,09,16,14,16.10
2015,10,09,16,15,20.90
2015,10,09,16,16,24.20
2015,10,09,16,17,27.40
2015,10,09,16,18,12.90
2015,10,09,16,19,22.50
2015,10,09,16,20,25.70
2015,10,09,16,21,20.90
2015,10,09,16,22,25.70
2015,10,09,16,23,22.50
2015,10,09,16,24,37.00
2015,10,09,16,25,17.70
2015,10,09,16,26,24.20
2015,10,09,16,27,29.00
2015,10,09,16,28,12.90
2015,10,09,16,29,17.70
2015,10,09,16,30,22.50
2015,10,09,16,31,25.70
2015,10,09,16,32,14.50
2015,10,09,16,33,24.20
2015,10,09,16,34,24.20
2015,10,09,16,35,24.20
2015,10,09,16,36,22.50
2015,10,09,16,37,25.70
2015,10,09,16,38,25.70
2015,10,09,16,39,16.10
2015,10,09,16,40,24.20
2015,10,09,16,41,27.40
2015,10,09,16,42,27.40
2015,10,09,16,43,22.50
2015,10,09,16,44,22.50
2015,10,09,16,45,25.70
2015,10,09,16,46,20.90
2015,10,09,16,47,29.00
2015,10,09,16,48,16.10
2015,10,09,16,49,30.60
2015,10,09,16,50,24.20
2015,10,09,16,51,30.60
2015,10,09,16,52,45.10
2015,10,09,16,53,32.20
2015,10,09,16,54,22.50
2015,10,09,16,55,24.20
2015,10,09,16,56,24.20
2015,10,09,16,57,24.20
2015,10,09,16,58,12.90
2015,10,09,16,59,29.00
2015,10,09,17,00,25.70
2015,10,09,17,01,25.70
2015,10,09,17,02,35.40
2015,10,09,17,03,25.70
2015,10,09,17,04,17.70
2015,10,09,17,05,22.50
2015,10,09,17,06,24.20
2015,10,09,17,07,27.40
2015,10,09,17,08,27.40
2015,10,09,17,09,20.90
2015,10,09,17,10,32.20
2015,10,09,17,11,25.70
2015,10,09,17,12,22.50
2015,10,09,17,13,22.50
2015,10,09,17,14,24.20
2015,10,09,17,15,20.90
2015,10,09,17,16,16.10
2015,10,09,17,17,32.20
2015,10,09,17,18,25.70
2015,10,09,17,19,19.30
2015,10,09,17,20,25.70
2015,10,09,17,21,25.70
2015,10,09,17,22,20.90
2015,10,09,17,23,16.10
2015,10,09,17,24,17.70
2015,10,09,17,25,32.20
2015,10,09,17,26,22.50
2015,10,09,17,27,29.00
2015,10,09,17,28,20.90
2015,10,09,17,29,17.70
2015,10,09,17,30,22.50
2015,10,09,17,31,19.30
2015,10,09,17,32,27.40
2015,10,09,17,33,22.50
2015,10,09,17,34,16.10
2015,10,09,17,35,16.10
2015,10,09,17,36,29.00
2015,10,09,17,37,22.50
2015,10,09,17,38,24.20
2015,10,09,17,39,12.90
2015,10,09,17,40,12.90
2015,10,09,17,41,22.50
2015,10,09,17,42,25.70
2015,10,09,17,43,20.90
2015,10,09,17,44,14.50
2015,10,09,17,45,12.90
2015,10,09,17,46,20.90
2015,10,09,17,47,17.70
2015,10,09,17,48,22.50
2015,10,09,17,49,19.30
2015,10,09,17,50,19.30
2015,10,09,17,51,14.50
2015,10,09,17,52,12.90
2015,10,09,17,53,16.10
2015,10,09,17,54,25.70
2015,10,09,17,55,22.50
2015,10,09,17,56,19.30
2015,10,09,17,57,19.30
2015,10,09,17,58,19.30
2015,10,09,17,59,19.30
2015,10,09,18,00,17.70
2015,10,09,18,01,20.90
2015,10,09,18,02,16.10
2015,10,09,18,03,16.10
2015,10,09,18,04,25.70
2015,10,09,18,05,16.10
2015,10,09,18,06,22.50
2015,10,09,18,07,33.80
2015,10,09,18,08,17.70
2015,10,09,18,09,32.20
2015,10,09,18,10,24.20
2015,10,09,18,11,22.50
2015,10,09,18,12,24.20
2015,10,09,18,13,17.70
2015,10,09,18,14,14.50
2015,10,09,18,15,20.90
2015,10,09,18,16,29.00
2015,10,09,18,17,22.50
2015,10,09,18,18,22.50
2015,10,09,18,19,27.40
2015,10,09,18,20,32.20
2015,10,09,18,21,27.40
2015,10,09,18,22,25.70
2015,10,09,18,23,32.20
2015,10,09,18,24,19.30
2015,10,09,18,25,30.60
2015,10,09,18,26,25.70
2015,10,09,18,27,22.50
2015,10,09,18,28,20.90
2015,10,09,18,29,19.30
2015,10,09,18,30,24.20
2015,10,09,18,31,24.20
2015,10,09,18,32,29.00
2015,10,09,18,33,29.00